Location: Newark
(30.1000°N, 109.4667°E)
Time: 03:38:04
(UTC+00:00)

Courier 1B Rocket - Pass Details

Date: 24 February 2020
Orbit: 920 x 1202 km, 28.2° (Epoch: 04 April)

Event Time Altitude Azimuth Distance (km) Brightness Sun altitude
Exits shadow 20:51:42 36° 171° (S) 1,567 6.0 -31.4°
Drops below altitude 10° 20:56:42 10° 133° (SE) 2,894 7.9 -30.3°
Sets 20:59:42 0° 126° (SE) 3,895 8.8 -29.7°
